Location: Hlohovi?ky
(49.8934°N, 13.6739°E)
Time: 05:56:14
(UTC+00:00)

Cosmos 1821 Rocket - Pass Details

Date: 19 May 2025
Orbit: 943 x 1004 km, 82.9° (Epoch: 14 June)

Event Time Altitude Azimuth Distance (km) Brightness Sun altitude
Rises 20:27:32 0° 352° (N) 3,643 8.1 -12.3°
Reaches altitude 10° 20:30:08 10° 357° (N) 2,687 7.2 -12.5°
Maximum altitude 20:36:08 54° 75° (ENE) 1,135 4.2 -13.1°
Enters shadow 20:40:29 19° 147° (SSE) 2,100 5.1 -13.5°
